DW8209 Gubbio IT current weather conditions

sailwx.info

Wind from 047 at 4 knots gusting 8

Air temperature 14.4° C
Dewpoint 8.4° C

Last reported at 2016-Apr-29 09:42 UTC.
Time now 2016-Apr-29 10:07 UTC

Location: N 43°19' E 012°34'.
View on Google Maps.

See reports from other nearby stations

  
Tides and Currents Weather Stations Pressure Air Temp Water Temp Dewpoint Dewpoint Depression Visibility Wind Speed Wind Dir Waves Ship Positions
date/time (UTC)wind fromknots sea level pressurealtimeterstation pressurevisibilityair tempwater tempwave heightnotes
2016-Apr-29 09:42 047 4 gusting 8 14.4
2016-Apr-29 09:27 065 3 gusting 5 13.9
2016-Apr-29 09:12 051 4 gusting 7 14.4
2016-Apr-29 08:57 061 2 gusting 5 13.3
2016-Apr-29 08:42 091 13.9
2016-Apr-29 08:27 089 13.3
2016-Apr-29 08:12 067 13.9
2016-Apr-29 07:57 071 13.9
2016-Apr-29 07:42 146 13.9
2016-Apr-29 07:27 137 13.3
2016-Apr-29 07:12 228 11.7
2016-Apr-29 06:57 239 10.6
2016-Apr-29 06:41 259 0 gusting 1 10.0
2016-Apr-29 06:26 246 10.0
2016-Apr-29 06:11 262 0 gusting 1 9.4
2016-Apr-29 05:56 232 9.4
2016-Apr-29 05:41 280 8.9
2016-Apr-29 05:26 281 1 gusting 2 8.9
2016-Apr-29 05:11 239 8.3
2016-Apr-29 04:56
2016-Apr-29 04:41
2016-Apr-29 04:26
2016-Apr-29 04:11
2016-Apr-29 03:56
2016-Apr-29 03:41
2016-Apr-29 03:26
2016-Apr-29 03:11
2016-Apr-29 02:56
2016-Apr-29 02:40
2016-Apr-29 02:25 224 8.3
2016-Apr-29 02:10 224 8.3
2016-Apr-29 01:55 215 8.9
2016-Apr-29 01:40 215 8.9
2016-Apr-29 01:25 200 8.9
2016-Apr-29 01:10 200 8.9
2016-Apr-29 00:55 200 8.9
2016-Apr-29 00:40 289 9.4
2016-Apr-29 00:25 290 9.4
2016-Apr-29 00:10 290 9.4
2016-Apr-28 23:55 273 9.4
2016-Apr-28 23:40 273 9.4
2016-Apr-28 23:25 273 9.4
2016-Apr-28 23:10 273 9.4
2016-Apr-28 22:55 273 9.4
2016-Apr-28 22:40 273 9.4
2016-Apr-28 22:25 239 9.4
2016-Apr-28 22:10 339 9.4
2016-Apr-28 21:55 338 10.0
2016-Apr-28 21:40 338 10.0
2016-Apr-28 21:25 338 10.0
2016-Apr-28 21:10 338 10.0
2016-Apr-28 20:55 338 10.0
2016-Apr-28 20:40 338 10.0
2016-Apr-28 20:25 117 1 gusting 2 10.0
2016-Apr-28 20:10 132 10.0
2016-Apr-28 19:55 061 10.0
2016-Apr-28 19:40 060 10.6
2016-Apr-28 19:25 062 10.6
2016-Apr-28 19:10 063 10.6
2016-Apr-28 18:55 062 10.6
2016-Apr-28 18:40 062 10.6
2016-Apr-28 18:25 063 10.6
2016-Apr-28 18:10 062 10.6
2016-Apr-28 17:55 062 10.6
2016-Apr-28 17:40 063 10.6
2016-Apr-28 17:25 063 10.6
2016-Apr-28 17:10 060 1 gusting 2 11.1
2016-Apr-28 16:55 085 0 gusting 1 11.1
2016-Apr-28 16:40 115 0 gusting 2 11.1
2016-Apr-28 16:25 098 1 gusting 2 11.1
2016-Apr-28 16:09 096 1 gusting 2 11.1
2016-Apr-28 15:54 071 1 gusting 2 11.1
2016-Apr-28 15:39 077 11.1
2016-Apr-28 15:24 125 11.1
2016-Apr-28 15:09 215 11.1
2016-Apr-28 14:54 250 0 gusting 3 11.1
2016-Apr-28 14:39 156 0 gusting 2 11.1
2016-Apr-28 14:24 128 1 gusting 3 11.1
2016-Apr-28 14:09 215 1 gusting 4 11.1
2016-Apr-28 13:54 195 1 gusting 4 11.1
2016-Apr-28 13:39 134 2 gusting 5 11.1
2016-Apr-28 13:24 181 3 gusting 6 11.1
2016-Apr-28 13:09 154 2 gusting 8 11.1
2016-Apr-28 12:54 104 3 gusting 4 11.1
2016-Apr-28 12:39 063 1 gusting 4 11.1
2016-Apr-28 12:24 132 0 gusting 4 11.1
2016-Apr-28 12:09 119 2 gusting 6 11.1
2016-Apr-28 11:54 123 3 gusting 5 11.1
2016-Apr-28 11:39 096 1 gusting 3 11.1
2016-Apr-28 11:24 096 2 gusting 3 11.1
2016-Apr-28 11:09 077 1 gusting 2 11.1
2016-Apr-28 10:54 084 11.7
2016-Apr-28 10:39 097 2 gusting 4 11.7
2016-Apr-28 10:24 172 3 gusting 9 11.7
2016-Apr-28 10:09 143 2 gusting 7 11.7
2016-Apr-28 09:54 208 4 gusting 6 11.7
2016-Apr-28 09:39 095 0 gusting 5 11.7
2016-Apr-28 09:24 179 2 gusting 7 11.7
2016-Apr-28 09:09 189 2 gusting 4 12.2
2016-Apr-28 08:54 143 1 gusting 6 12.2
2016-Apr-28 08:39 175 2 gusting 9 12.8
2016-Apr-28 08:24 157 4 gusting 8 12.8
2016-Apr-28 08:09 205 2 gusting 8 12.8
2016-Apr-28 07:54 233 3 gusting 9 12.8
2016-Apr-28 07:39 203 3 gusting 10 12.8
2016-Apr-28 07:24 217 2 gusting 6 12.8
2016-Apr-28 07:09 158 0 gusting 4 13.3
2016-Apr-28 06:54 160 13.3
2016-Apr-28 06:39 142 12.8
2016-Apr-28 06:24 146 12.2
2016-Apr-28 06:09 131 11.7
2016-Apr-28 05:54 125 0 gusting 3 11.7
2016-Apr-28 05:39 123 2 gusting 3 11.1
2016-Apr-28 05:24 128 11.1
2016-Apr-28 05:08 127 0 gusting 2 11.1
2016-Apr-28 04:53
2016-Apr-28 04:38
2016-Apr-28 04:23
2016-Apr-28 04:09
2016-Apr-28 03:53
2016-Apr-28 03:38
2016-Apr-28 03:23 138 1 gusting 6 11.1
2016-Apr-28 03:08 191 1 gusting 6 11.1
2016-Apr-28 02:53 214 0 gusting 3 11.1
2016-Apr-28 02:38 176 11.1
2016-Apr-28 02:23 150 1 gusting 4 11.1
2016-Apr-28 02:08 174 1 gusting 6 11.1
2016-Apr-28 01:53 221 0 gusting 5 11.1
2016-Apr-28 01:38 131 0 gusting 5 11.1
2016-Apr-28 01:23 120 11.1
2016-Apr-28 01:08 183 0 gusting 3 11.1
2016-Apr-28 00:53 121 0 gusting 3 11.1
2016-Apr-28 00:38 152 11.1
2016-Apr-28 00:23 149 11.1
2016-Apr-28 00:08 210 1 gusting 6 11.1
2016-Apr-27 23:53 166 2 gusting 6 11.1
2016-Apr-27 23:38 119 1 gusting 6 11.1
2016-Apr-27 23:23 211 1 gusting 6 11.1
2016-Apr-27 23:08 212 2 gusting 7 11.1
2016-Apr-27 22:53 191 2 gusting 6 11.1
2016-Apr-27 22:38 135 1 gusting 7 11.1
2016-Apr-27 22:23 166 0 gusting 4 10.6
2016-Apr-27 22:08 170 0 gusting 3 10.6
2016-Apr-27 21:52 149 1 gusting 6 10.6
2016-Apr-27 21:37 129 1 gusting 3 11.1
2016-Apr-27 21:22 179 2 gusting 6 11.1
2016-Apr-27 21:07 167 2 gusting 5 10.6
2016-Apr-27 20:52 179 3 gusting 6 10.6
2016-Apr-27 20:37 207 5 gusting 8 10.6
2016-Apr-27 20:22 200 6 gusting 12 10.6
2016-Apr-27 20:07 195 6 gusting 12 10.6
2016-Apr-27 19:52 212 4 gusting 10 11.1
2016-Apr-27 19:37 204 3 gusting 8 11.1
2016-Apr-27 19:22 197 3 gusting 12 11.1
2016-Apr-27 19:07 229 5 gusting 9 11.7
2016-Apr-27 18:52 191 7 gusting 11 11.7
2016-Apr-27 18:37 180 6 gusting 13 12.2
2016-Apr-27 18:22 180 6 gusting 16 12.2
2016-Apr-27 18:07 201 7 gusting 17 12.8
2016-Apr-27 17:52 188 7 gusting 19 12.8
2016-Apr-27 17:38 205 8 gusting 16 13.3
2016-Apr-27 17:22 194 8 gusting 14 13.3
2016-Apr-27 17:07 191 9 gusting 20 13.9
2016-Apr-27 16:52 172 8 gusting 16 13.9
2016-Apr-27 16:37 179 7 gusting 15 14.4
2016-Apr-27 16:22 198 8 gusting 17 15.0
2016-Apr-27 16:07 205 7 gusting 23 15.0
2016-Apr-27 15:52 170 12 gusting 21 15.6
2016-Apr-27 15:37 223 8 gusting 21 16.1
2016-Apr-27 15:22 169 9 gusting 19 16.1
2016-Apr-27 15:07 169 10 gusting 21 15.6
2016-Apr-27 14:52 193 9 gusting 16 15.6
2016-Apr-27 14:37 135 6 gusting 17 15.6
2016-Apr-27 14:22 195 9 gusting 21 15.6
2016-Apr-27 14:07 173 10 gusting 16 16.1
2016-Apr-27 13:52 197 12 gusting 22 16.1
2016-Apr-27 13:37 188 11 gusting 19 16.7
2016-Apr-27 13:22 150 3 gusting 14 16.7
2016-Apr-27 13:07 160 9 gusting 18 16.1
2016-Apr-27 12:52 248 8 gusting 16 16.7
2016-Apr-27 12:37 238 11 gusting 22 16.1
2016-Apr-27 12:22 231 8 gusting 19 16.1
2016-Apr-27 12:07 235 9 gusting 25 16.1
2016-Apr-27 11:52 204 11 gusting 26 16.1
2016-Apr-27 11:38 236 11 gusting 19 15.6
2016-Apr-27 11:22 176 13 gusting 24 15.6
2016-Apr-27 11:07 177 11 gusting 17 15.6
2016-Apr-27 10:52 228 6 gusting 17 15.0
2016-Apr-27 10:37 176 13 gusting 21 15.0
2016-Apr-27 10:22 233 8 gusting 18 15.0
2016-Apr-27 10:06 218 8 gusting 18 15.0